Weather History for Dutch Harbor, AK

Change the Weather History Date:

Friday, November 9, 2012

  Actual Average Record
Temperature  
Mean Temperature 43 °F -  
Max Temperature 45 °F 45 °F 56 °F (1993)
Min Temperature 41 °F 30 °F 14 °F (1992)
Degree Days  
Heating Degree Days 22    
Moisture  
Dew Point 38 °F    
Average Humidity 85    
Maximum Humidity 100    
Minimum Humidity 79    
Precipitation  
Precipitation 0.28 in - - ()
Sea Level Pressure  
Sea Level Pressure 29.28 in    
Wind  
Wind Speed 15 mph (WNW)    
Max Wind Speed 33 mph    
Max Gust Speed 40 mph    
Visibility 5 miles    
Events Rain    
Averages and records for this station are not official NWS values.
T = Trace of Precipitation, MM = Missing Value Source: NWS Daily Summary

Daily Weather History Graph

Daily Weather History Graph

Search for Another Location

Airport:

Trip Planner

Search our weather history database for the weather conditions in past years. The results will help you decide how hot, cold, wet, or windy it might be!

Date:

Astronomy

Nov. 09, 2012 Rise Set
Actual Time 9:23 AM AKST 6:15 PM AKST
Civil Twilight 8:44 AM AKST 6:54 PM AKST
Nautical Twilight 8:02 AM AKST 7:37 PM AKST
Astronomical Twilight 7:20 AM AKST 8:18 PM AKST
Moon 3:57 AM AKST (11/9) 4:09 PM AKST (11/9)
Length of Visible Light 10h 09m
Length of Day
8h 52m
Waning Crescent, 22% of the Moon is Illuminated
Nov 9
Waning Crescent
Nov 13
New
Nov 20
First Quarter
Nov 28
Full
Dec 6
Last Quarter

Hourly Weather History & Observations

Time (AKST) Temp. Windchill Dew Point Humidity Pressure Visibility Wind Dir Wind Speed Gust Speed Precip Events Conditions
12:06 AM 42.8 °F - 41.0 °F 93% 29.02 in 3.0 mi Calm Calm - 0.00 in   Overcast
12:18 AM 42.8 °F - 41.0 °F 93% 29.02 in 1.8 mi Calm Calm - 0.00 in   Overcast
12:35 AM 42.8 °F - 41.0 °F 93% 29.02 in 3.0 mi Calm Calm - 0.00 in Rain Light Rain
12:43 AM 42.8 °F - 41.0 °F 93% 29.02 in 1.8 mi Calm Calm - 0.00 in Rain Light Rain
1:21 AM 41.0 °F - 39.2 °F 93% 29.03 in 2.5 mi Calm Calm - 0.00 in Rain Light Rain
1:37 AM 42.8 °F - 39.2 °F 87% 29.03 in 3.0 mi Calm Calm - 0.01 in Rain Light Rain
1:54 AM 42.8 °F - 41.0 °F 93% 29.03 in 5.0 mi Calm Calm - 0.01 in Rain Light Rain
1:56 AM 42.1 °F - 41.0 °F 96% 29.04 in 8.0 mi Calm Calm - 0.01 in Rain Light Rain
2:13 AM 42.8 °F - 42.8 °F 100% 29.03 in 10.0 mi Calm Calm - 0.00 in   Overcast
2:56 AM 44.1 °F 41.5 °F 42.1 °F 93% 29.06 in 10.0 mi West 4.6 mph - 0.00 in   Overcast
3:56 AM 45.0 °F 37.6 °F 39.9 °F 82% 29.09 in 10.0 mi NW 17.3 mph - 0.01 in Rain Light Rain
4:56 AM 44.1 °F 38.6 °F 39.0 °F 82% 29.12 in 10.0 mi WNW 10.4 mph - 0.04 in Rain Light Rain
5:56 AM 44.1 °F 35.9 °F 37.9 °F 79% 29.14 in 10.0 mi West 19.6 mph - 0.02 in Rain Light Rain
6:26 AM 42.8 °F 34.0 °F 37.4 °F 81% 29.13 in 10.0 mi West 20.7 mph - 0.00 in Rain Light Rain
6:56 AM 43.0 °F 33.5 °F 37.9 °F 82% 29.16 in 10.0 mi WNW 24.2 mph 28.8 mph 0.00 in Rain Light Rain
7:09 AM 42.8 °F 33.3 °F 37.4 °F 81% 29.14 in 10.0 mi WNW 24.2 mph 32.2 mph 0.00 in Rain Light Rain
7:56 AM 43.0 °F 33.5 °F 37.9 °F 82% 29.19 in 9.0 mi WNW 24.2 mph 29.9 mph 0.01 in Rain Light Rain
8:40 AM 42.8 °F 34.5 °F 37.4 °F 81% 29.19 in 3.0 mi WNW 18.4 mph 23.0 mph 0.01 in Rain Light Rain
8:56 AM 43.0 °F 34.5 °F 37.9 °F 82% 29.21 in 3.0 mi West 19.6 mph - 0.01 in Rain Light Rain
9:13 AM 42.8 °F 33.1 °F 37.4 °F 81% 29.21 in 5.0 mi West 25.3 mph 29.9 mph 0.01 in Rain Light Rain
9:56 AM 43.0 °F 33.1 °F 37.0 °F 80% 29.24 in 5.0 mi WNW 26.5 mph 34.5 mph 0.01 in Rain Light Rain
10:08 AM 42.8 °F 32.7 °F 37.4 °F 81% 29.23 in 6.0 mi WNW 27.6 mph 34.5 mph 0.00 in Rain Light Rain
10:15 AM 42.8 °F 33.1 °F 37.4 °F 81% 29.24 in 7.0 mi WNW 25.3 mph 32.2 mph 0.01 in Rain Light Rain
10:56 AM 43.0 °F 32.9 °F 37.0 °F 80% 29.27 in 7.0 mi West 27.6 mph 38.0 mph 0.03 in Rain Light Rain
11:07 AM 42.8 °F 32.5 °F 37.4 °F 81% 29.26 in 4.0 mi WNW 28.8 mph 39.1 mph 0.00 in Rain Light Rain
11:09 AM 42.8 °F 32.5 °F 37.4 °F 81% 29.26 in 5.0 mi WNW 28.8 mph 38.0 mph 0.00 in Rain Light Rain
11:32 AM 42.8 °F 32.7 °F 37.4 °F 81% 29.27 in 3.0 mi WNW 27.6 mph 38.0 mph 0.01 in Rain Light Rain
11:56 AM 42.1 °F 31.3 °F 37.0 °F 82% 29.30 in 3.0 mi WNW 29.9 mph 38.0 mph 0.02 in Rain Light Rain
12:05 PM 42.8 °F 32.1 °F 37.4 °F 81% 29.29 in 2.5 mi WNW 31.1 mph 34.5 mph 0.00 in Rain Light Rain
12:35 PM 41.0 °F 30.2 °F 37.4 °F 87% 29.30 in 2.0 mi West 27.6 mph 36.8 mph 0.01 in Rain Light Rain
12:36 PM 41.0 °F 30.2 °F 37.4 °F 87% 29.30 in 2.0 mi West 27.6 mph 36.8 mph 0.01 in Rain Light Rain
1:21 PM 42.8 °F 33.3 °F 37.4 °F 81% 29.32 in 6.0 mi WNW 24.2 mph 33.4 mph 0.00 in Rain Light Rain
1:22 PM 42.8 °F 32.9 °F 37.4 °F 81% 29.33 in 5.0 mi WNW 26.5 mph 33.4 mph 0.00 in Rain Light Rain
1:32 PM 41.0 °F 29.8 °F 37.4 °F 87% 29.33 in 2.5 mi West 29.9 mph 35.7 mph 0.01 in Rain Light Rain
1:42 PM 41.0 °F 30.0 °F 37.4 °F 87% 29.33 in 2.0 mi West 28.8 mph 35.7 mph 0.02 in Rain Light Rain
1:56 PM 41.0 °F 30.7 °F 37.9 °F 89% 29.36 in 1.5 mi West 25.3 mph 34.5 mph 0.03 in Rain Light Rain
2:08 PM 41.0 °F 31.1 °F 37.4 °F 87% 29.34 in 2.5 mi WNW 23.0 mph 32.2 mph 0.01 in Rain Light Rain
2:11 PM 41.0 °F 30.5 °F 37.4 °F 87% 29.34 in 2.0 mi WNW 26.5 mph 32.2 mph 0.01 in Rain Light Rain
2:56 PM 41.0 °F 30.0 °F 37.9 °F 89% 29.38 in 2.0 mi WNW 28.8 mph 39.1 mph 0.06 in Rain Light Rain
2:57 PM 41.0 °F 30.0 °F 37.4 °F 87% 29.36 in 2.0 mi WNW 28.8 mph 39.1 mph 0.00 in Rain Light Rain
2:59 PM 41.0 °F 29.5 °F 37.4 °F 87% 29.36 in 2.0 mi West 32.2 mph 40.3 mph 0.00 in Rain Light Rain
3:01 PM 41.0 °F 30.2 °F 37.4 °F 87% 29.36 in 2.0 mi WNW 27.6 mph 40.3 mph 0.00 in Rain Light Rain
3:56 PM 41.0 °F 29.3 °F 37.0 °F 86% 29.40 in 2.0 mi WNW 33.4 mph 40.3 mph 0.01 in Rain Light Rain
4:03 PM 41.0 °F 29.5 °F 37.4 °F 87% 29.39 in 3.0 mi WNW 32.2 mph 40.3 mph 0.00 in Rain Light Rain
4:30 PM 41.0 °F 30.2 °F 37.4 °F 87% 29.40 in 3.0 mi WNW 27.6 mph 39.1 mph 0.00 in Rain Light Rain
4:56 PM 42.1 °F 31.7 °F 37.0 °F 82% 29.44 in 3.0 mi WNW 27.6 mph 34.5 mph 0.00 in Rain Light Rain
4:58 PM 42.8 °F 33.1 °F 37.4 °F 81% 29.42 in 3.0 mi WNW 25.3 mph 34.5 mph 0.00 in Rain Light Rain
5:56 PM 42.1 °F 32.3 °F 37.0 °F 82% 29.47 in 2.0 mi WNW 24.2 mph 36.8 mph 0.01 in Rain Light Rain
6:36 PM 42.8 °F 32.3 °F 37.4 °F 81% 29.46 in 4.0 mi WNW 29.9 mph 35.7 mph 0.01 in Rain Light Rain
6:47 PM 42.8 °F 32.5 °F 37.4 °F 81% 29.47 in 6.0 mi WNW 28.8 mph 38.0 mph 0.01 in Rain Light Rain
6:52 PM 42.8 °F 33.1 °F 37.4 °F 81% 29.47 in 6.0 mi WNW 25.3 mph 38.0 mph 0.01 in Rain Light Rain
6:56 PM 42.1 °F 31.9 °F 37.0 °F 82% 29.49 in 9.0 mi WNW 26.5 mph 33.4 mph 0.01 in Rain Light Rain
7:56 PM 42.1 °F 32.6 °F 37.0 °F 82% 29.52 in 10.0 mi WNW 23.0 mph 32.2 mph 0.00 in Rain Light Rain
8:56 PM 42.1 °F 34.2 °F 37.0 °F 82% 29.55 in 10.0 mi WNW 16.1 mph 31.1 mph 0.00 in Rain Light Rain
9:56 PM 42.1 °F 33.9 °F 37.0 °F 82% 29.59 in 10.0 mi WNW 17.3 mph 21.9 mph 0.00 in Rain Light Rain
10:56 PM 42.1 °F 34.2 °F 37.0 °F 82% 29.62 in 10.0 mi WNW 16.1 mph 21.9 mph 0.00 in Rain Light Rain
11:56 PM 42.1 °F 33.9 °F 37.0 °F 82% 29.64 in 10.0 mi WNW 17.3 mph 25.3 mph 0.00 in Rain Light Rain